Flight Track Log - Related Links

Times and Time Zones

All times are in EDT time to prevent confusion due to time zone crossing. See the AWE1600 flight status page for this flight to view local times or setup timezone preferences in your user account.

Time Position Orientation Groundspeed Altitude Reporting Facility
EDT Latitude Longitude Course Direction KTS MPH feet Rate Location/Type
Thu 09:21:02 AM 39.8592 -75.2794 270° West 128 147 1,100  Level FAA TRACON SMA TRACON (SMA)
Thu 09:21:23 AM 39.8550 -75.2975 253° West 160 184 1,600 1,610 Climbing FAA TRACON SMA TRACON (SMA)
Thu 09:21:43 AM 39.8506 -75.3178 254° West 192 221 2,200 2,250 Climbing FAA TRACON SMA TRACON (SMA)
Thu 09:22:03 AM 39.8439 -75.3458 253° West 210 242 3,100 2,250 Climbing FAA TRACON SMA TRACON (SMA)
Thu 09:22:23 AM 39.8378 -75.3683 251° West 230 265 3,700 2,550 Climbing FAA TRACON SMA TRACON (SMA)
Thu 09:22:43 AM 39.8311 -75.3978 254° West 252 290 4,800 4,154 Climbing FAA TRACON SMA TRACON (SMA)
Thu 09:23:00 AM 39.9000 -75.5661 270° West  Level FlightAware Approximate
Thu 09:23:02 AM 39.8250 -75.4319 257° West 251 289 6,400  Level FAA TRACON SMA TRACON (SMA)
Thu 09:23:22 AM 39.8283 -75.4594 279° West 245 282 7,600 2,780 Climbing FAA TRACON SMA TRACON (SMA)
Thu 09:23:43 AM 39.8308 -75.4869 277° West 251 289 8,300 1,902 Climbing FAA TRACON SMA TRACON (SMA)
Thu 09:24:00 AM 39.9148 -75.6776 258° West  Level FlightAware Approximate
Thu 09:24:03 AM 39.8344 -75.5214 278° West 259 298 8,900  Level FAA TRACON SMA TRACON (SMA)
Thu 09:24:24 AM 39.8381 -75.5494 280° West 258 297 9,200 1,024 Climbing FAA TRACON SMA TRACON (SMA)
Thu 09:24:44 AM 39.8417 -75.5867 277° West 258 297 9,600 1,385 Climbing FAA TRACON SMA TRACON (SMA)
Thu 09:25:00 AM 39.9000 -75.7908 270° West  Level FlightAware Approximate
Thu 09:25:03 AM 39.8447 -75.6153 278° West 258 297 10,100  Level FAA TRACON SMA TRACON (SMA)
Thu 09:25:23 AM 39.8481 -75.6436 279° West 258 297 10,900 1,846 Climbing FAA TRACON SMA TRACON (SMA)
Thu 09:25:42 AM 39.8517 -75.6739 279° West 269 310 11,300 1,902 Climbing FAA TRACON SMA TRACON (SMA)
Thu 09:26:00 AM 39.9001 -75.9061 270° West  Level FlightAware Approximate
Thu 09:26:04 AM 39.8556 -75.7161 277° West 304 350 12,200  Level FAA TRACON SMA TRACON (SMA)
Thu 09:26:23 AM 39.8603 -75.7478 281° West 296 341 13,600 3,692 Climbing FAA TRACON SMA TRACON (SMA)
Thu 09:26:43 AM 39.8636 -75.7808 277° West 291 335 14,600 2,850 Climbing FAA TRACON SMA TRACON (SMA)
Thu 09:27:03 AM 39.8675 -75.8214 277° West 295 339 15,500 2,634 Climbing FAA TRACON SMA TRACON (SMA)
Thu 09:27:24 AM 39.8711 -75.8550 278° West 301 346 16,400 2,634 Climbing FAA TRACON SMA TRACON (SMA)
Thu 09:27:44 AM 39.8756 -75.8969 278° West 305 351 17,300 2,308 Climbing FAA TRACON SMA TRACON (SMA)
Thu 09:28:03 AM 39.8803 -75.9314 280° West 308 354 17,900 1,077 Climbing FAA TRACON SMA TRACON (SMA)
Thu 09:28:23 AM 39.8811 -75.9397 277° West 308 354 18,000 1,800 Climbing FAA TRACON SMA TRACON (SMA)
Thu 09:30:53 AM 39.9094 -76.2431 277° West 324 373 23,000 1,442 Climbing New York Center
Thu 09:31:51 AM 39.9122 -76.3597 272° West 329 379 23,000  Level New York Center
Thu 09:32:51 AM 39.9189 -76.4819 274° West 329 379 23,000 744 Level New York Center
Thu 09:33:52 AM 39.9236 -76.6017 273° West 334 384 24,500 1,550 Climbing New York Center
Thu 09:34:51 AM 39.9317 -76.7294 275° West 340 391 26,100 1,636 Climbing New York Center
Thu 09:35:53 AM 39.9544 -76.8561 283° West 353 406 27,800 1,636 Climbing New York Center
Thu 09:36:52 AM 39.9789 -76.9856 284° West 359 413 29,400 1,412 Climbing New York Center
Thu 09:37:52 AM 40.0050 -77.1208 284° West 370 426 30,600 1,109 Climbing New York Center
Thu 09:38:51 AM 40.0311 -77.2561 284° West 381 438 31,600 1,449 Climbing New York Center
Thu 09:40:50 AM 40.0825 -77.5250 284° West 386 444 34,900 1,508 Climbing Cleveland Center
Thu 09:41:50 AM 40.1067 -77.6594 283° West 386 444 36,100 1,000 Climbing Cleveland Center
Thu 09:42:50 AM 40.1289 -77.7917 282° West 381 438 36,900 950 Climbing Cleveland Center
Thu 09:43:50 AM 40.1367 -77.9408 274° West 376 433 38,000 550 Climbing Cleveland Center
Thu 09:44:50 AM 40.1375 -78.0711 271° West 370 426 38,000  Level Cleveland Center
Thu 09:45:50 AM 40.1383 -78.2042 271° West 365 420 38,000  Level Cleveland Center
Thu 09:46:50 AM 40.1389 -78.3344 270° West 365 420 38,000  Level Cleveland Center
Thu 09:47:50 AM 40.1414 -78.4675 271° West 365 420 38,000  Level Cleveland Center
Thu 09:48:50 AM 40.1417 -78.6006 270° West 365 420 38,000 -50 Level Cleveland Center
Thu 09:49:50 AM 40.1417 -78.7281 270° West 365 420 37,900 -1,000 Descending Cleveland Center
Thu 09:50:50 AM 40.1417 -78.8639 270° West 365 420 36,000 -950 Descending Cleveland Center
Thu 09:51:50 AM 40.1417 -79.0053 270° West 375 432 36,000  Level Cleveland Center
Thu 09:52:50 AM 40.1436 -79.1408 271° West 380 437 36,000  Level Cleveland Center
Thu 09:53:50 AM 40.1681 -79.2764 283° West 385 443 36,000  Level Cleveland Center
Thu 09:54:50 AM 40.2028 -79.3925 291° West 380 437 36,000  Level Cleveland Center
Thu 09:55:50 AM 40.2456 -79.5169 294° West 380 437 36,000 -1,100 Level Cleveland Center
Thu 09:56:50 AM 40.2906 -79.6442 295° West 380 437 33,800 -1,650 Descending Cleveland Center
Thu 09:57:50 AM 40.3375 -79.7769 295° West 391 450 32,700 -1,050 Descending Cleveland Center
Thu 09:58:50 AM 40.3842 -79.9044 296° West 391 450 31,700 -1,000 Descending Cleveland Center
Thu 09:59:50 AM 40.4308 -80.0486 293° West 391 450 30,700 -850 Descending Cleveland Center
Thu 10:00:50 AM 40.4750 -80.1764 294° West 391 450 30,000 -350 Descending Cleveland Center
Thu 10:01:50 AM 40.5192 -80.3017 295° West 391 450 30,000  Level Cleveland Center
Thu 10:02:50 AM 40.5653 -80.4272 296° West 391 450 30,000  Level Cleveland Center
Thu 10:03:50 AM 40.6069 -80.5558 293° West 381 438 30,000  Level Cleveland Center
Thu 10:04:50 AM 40.6508 -80.6817 295° West 376 433 30,000  Level Cleveland Center
Thu 10:05:50 AM 40.7047 -80.8022 301° West 376 433 30,000  Level Cleveland Center
Thu 10:06:50 AM 40.7628 -80.9203 303° West 381 438 30,000  Level Cleveland Center
Thu 10:07:50 AM 40.8208 -81.0386 303° West 381 438 30,000  Level Cleveland Center
Thu 10:08:50 AM 40.8703 -81.1486 301° West 388 447 30,000  Level Cleveland Center
Thu 10:09:50 AM 40.9281 -81.2675 303° West 383 441 30,000  Level Cleveland Center
Thu 10:10:50 AM 40.9878 -81.3892 303° West 388 447 30,000 -450 Level Cleveland Center
Thu 10:11:50 AM 41.0494 -81.5192 302° West 388 447 29,100 -1,400 Descending Cleveland Center
Thu 10:12:50 AM 41.1067 -81.6358 303° West 388 447 27,200 -1,450 Descending Cleveland Center
Thu 10:13:50 AM 41.1661 -81.7497 305° West 388 447 26,200 -1,000 Descending Cleveland Center
Thu 10:14:50 AM 41.2211 -81.8667 302° West 383 441 25,200 -1,000 Descending Cleveland Center
Thu 10:15:50 AM 41.2739 -81.9756 303° West 377 434 24,200 -1,000 Descending Cleveland Center
Thu 10:16:50 AM 41.3247 -82.0844 302° West 363 418 23,200 -950 Descending Cleveland Center
Thu 10:17:50 AM 41.3692 -82.1825 301° West 352 405 22,300 -950 Descending Cleveland Center
Thu 10:18:50 AM 41.4283 -82.2836 308° West 347 399 21,300 -1,350 Descending Cleveland Center
Thu 10:19:50 AM 41.4872 -82.3794 309° West 336 387 19,600 -1,858 Descending Cleveland Center
Thu 10:20:43 AM 41.5461 -82.4753 309° West 329 379 17,800 -1,938 Descending Cleveland Center
Thu 10:21:26 AM 41.5847 -82.5403 308° West 326 375 16,500 -1,701 Descending Cleveland Center
Thu 10:21:50 AM 41.6050 -82.5769 306° West 328 377 15,900 -1,837 Descending Cleveland Center
Thu 10:22:15 AM 41.6272 -82.6167 307° West 326 375 15,000 -1,900 Descending Cleveland Center
Thu 10:22:50 AM 41.6556 -82.6619 310° West 328 377 14,000 -1,970 Descending Cleveland Center
Thu 10:23:22 AM 41.6939 -82.7244 309° West 325 374 12,800 -1,900 Descending Cleveland Center
Thu 10:23:50 AM 41.7100 -82.7556 305° West 328 377 12,100 -873 Descending Cleveland Center
Thu 10:24:17 AM 41.7486 -82.8069 315° West 327 376 12,000 -100 Descending Cleveland Center
Thu 10:24:50 AM 41.7772 -82.8414 318° Northwest 323 372 12,000  Level Cleveland Center
Thu 10:25:12 AM 41.8119 -82.8817 319° Northwest 335 386 12,000  Level Cleveland Center
Thu 10:25:50 AM 41.8464 -82.9247 317° Northwest 328 377 12,000  Level Cleveland Center
Thu 10:26:18 AM 41.8892 -82.9764 318° Northwest 336 387 12,000  Level Cleveland Center
Thu 10:26:50 AM 41.9133 -83.0081 316° Northwest 328 377 12,000  Level Cleveland Center
Thu 10:27:13 AM 41.9500 -83.0514 319° Northwest 334 384 12,000 -200 Level Cleveland Center
Thu 10:27:50 AM 41.9825 -83.0917 317° Northwest 338 389 11,800 -882 Descending Cleveland Center
Thu 10:28:21 AM 42.0294 -83.1439 320° Northwest 327 376 11,000 -800 Descending Cleveland Center
Thu 10:28:50 AM 42.0497 -83.1697 317° Northwest 328 377 11,000  Level Cleveland Center
Thu 10:29:21 AM 42.0883 -83.2133 320° Northwest 252 290 11,000  Level Cleveland Center
Thu 10:29:50 AM 42.1089 -83.2169 353° North 293 337 11,000  Level Cleveland Center
Thu 10:30:28 AM 42.1650 -83.2278 352° North 255 293 11,000 -581 Level Cleveland Center
Thu 10:31:23 AM 42.2261 -83.1967 21° North 271 312 10,100 -1,415 Descending Cleveland Center
Thu 10:32:31 AM 42.2961 -83.1461 28° Northeast 241 277 8,100 -2,000 Descending Cleveland Center
Thu 10:33:32 AM 42.3553 -83.1119 23° Northeast 224 258 5,800 -1,537 Descending Cleveland Center
Thu 10:34:32 AM 42.3853 -83.1667 307° West 154 177 5,000 -835 Descending Cleveland Center
Thu 10:35:27 AM 42.3697 -83.2108 245° Southwest 146 168 4,200 -873 Descending Cleveland Center

Login

Don't have an account? Register now (free) for customized features, flight alerts, and more!